This is the latest recevied weather packets stored in our database for station/object WV6L-13. If no packets are shown the sender has not sent any weather packets the latest 10 day(s).
| Time | Temp. | Humidity | Pressure | Rain* | Wind** | Luminosity | Snow |
|---|---|---|---|---|---|---|---|
| 1777760094 | 30° C | 11% | 924.1 hPa | - | - | - | - |
| 1777759794 | 29.44° C | 11% | 924.3 hPa | - | - | - | - |
| 1777758895 | 28.33° C | 12% | 924.6 hPa | - | - | - | - |
| 1777758594 | 28.89° C | 12% | 924.5 hPa | - | - | - | - |
| 1777757694 | 29.44° C | 12% | 924.7 hPa | - | - | - | - |
| 1777757394 | 28.89° C | 12% | 924.9 hPa | - | - | - | - |
| 1777757095 | 29.44° C | 12% | 924.8 hPa | - | - | - | - |
| 1777756794 | 29.44° C | 12% | 925.1 hPa | - | - | - | - |
| 1777756494 | 28.89° C | 12% | 925.2 hPa | - | - | - | - |
| 1777756195 | 28.89° C | 12% | 925.3 hPa | - | - | - | - |
| 1777755895 | 28.33° C | 12% | 925.2 hPa | - | - | - | - |
| 1777755594 | 28.89° C | 12% | 925.6 hPa | - | - | - | - |
| 1777754995 | 27.78° C | 12% | 925.7 hPa | - | - | - | - |
| 1777753794 | 28.33° C | 12% | 925.7 hPa | - | - | - | - |
| 1777753194 | 28.89° C | 12% | 926 hPa | - | - | - | - |
| 1777752895 | 28.89° C | 12% | 925.9 hPa | - | - | - | - |
| 1777752294 | 27.22° C | 13% | 926 hPa | - | - | - | - |
| 1777751994 | 28.33° C | 12% | 926.1 hPa | - | - | - | - |
| 1777751395 | 28.89° C | 12% | 926.2 hPa | - | - | - | - |
| 1777751094 | 27.78° C | 12% | 926.1 hPa | - | - | - | - |
| 1777750194 | 27.22° C | 13% | 926.5 hPa | - | - | - | - |
| 1777749594 | 27.78° C | 13% | 926.6 hPa | - | - | - | - |
| 1777749294 | 28.33° C | 13% | 926.7 hPa | - | - | - | - |
| 1777748995 | 28.89° C | 12% | 927 hPa | - | - | - | - |
| 1777748695 | 27.22° C | 13% | 926.9 hPa | - | - | - | - |
* Rain since midnight (hover to see other rain measurements)
** Current wind speed in m/s (hover to see current wind gust speed)